| time (UTC) | temp F | wind direction | speed MPH | gust MPH | rain 1hr in | rain 24hr in | rain mn in | humidity % | barometer mb |
| 20260504020030 | 48 | 0.0 | 0.0 | 0.00 | 0.00 | 0.00 | 79 | 1019.1 | |
| 20260504015207 | 48 | 315 | 1.0 | 2.0 | 0.00 | 0.00 | 0.00 | 78 | 1019.0 |
| 20260504014021 | 49 | 0.0 | 0.0 | 0.00 | 0.00 | 0.00 | 77 | 1019.0 | |
| 20260504013017 | 49 | 315 | 0.0 | 2.0 | 0.00 | 0.00 | 0.00 | 77 | 1018.9 |
| 20260504012213 | 49 | 0.0 | 0.0 | 0.00 | 0.00 | 0.00 | 76 | 1018.9 | |
| 20260504011109 | 50 | 315 | 0.0 | 2.0 | 0.00 | 0.00 | 0.00 | 76 | 1018.9 |
| 20260504010104 | 50 | 315 | 0.0 | 2.0 | 0.00 | 0.00 | 0.00 | 76 | 1019.0 |
| 20260504005100 | 50 | 315 | 0.0 | 2.0 | 0.00 | 0.00 | 0.00 | 76 | 1018.8 |
| 20260504004056 | 50 | 0.0 | 0.0 | 0.00 | 0.00 | 0.00 | 76 | 1018.8 | |
| 20260504003113 | 50 | 0.0 | 0.0 | 0.00 | 0.00 | 0.00 | 75 | 1019.0 | |
| 20260504002128 | 50 | 0.0 | 0.0 | 0.00 | 0.00 | 0.00 | 75 | 1018.9 | |
| 20260504001043 | 51 | 0.0 | 0.0 | 0.00 | 0.00 | 0.00 | 74 | 1019.0 | |
| 20260504000040 | 51 | 0.0 | 0.0 | 0.00 | 0.00 | 0.00 | 74 | 1019.0 | |
| 20260503235035 | 51 | 0.0 | 0.0 | 0.00 | 0.00 | 0.00 | 73 | 1019.1 | |
| 20260503234031 | 51 | 0.0 | 1.0 | 0.00 | 0.00 | 0.00 | 74 | 1019.1 | |
| 20260503233027 | 51 | 0.0 | 0.0 | 0.00 | 0.00 | 0.00 | 74 | 1019.3 | |
| 20260503232022 | 51 | 0.0 | 0.0 | 0.00 | 0.00 | 0.00 | 74 | 1019.2 | |
| 20260503231018 | 51 | 0.0 | 0.0 | 0.00 | 0.00 | 0.00 | 73 | 1019.1 | |
| 20260503230114 | 52 | 315 | 1.0 | 2.0 | 0.00 | 0.00 | 0.00 | 72 | 1019.2 |
| 20260503225130 | 52 | 0.0 | 0.0 | 0.00 | 0.00 | 0.00 | 72 | 1019.2 | |
| 20260503224126 | 53 | 315 | 0.0 | 2.0 | 0.00 | 0.00 | 0.00 | 72 | 1019.2 |
| 20260503223121 | 52 | 0.0 | 0.0 | 0.00 | 0.00 | 0.00 | 72 | 1019.1 | |
| 20260503222058 | 53 | 0.0 | 0.0 | 0.00 | 0.00 | 0.00 | 71 | 1019.1 | |
| 20260503221113 | 53 | 0.0 | 0.0 | 0.00 | 0.00 | 0.00 | 71 | 1019.1 | |
| 20260503220049 | 53 | 315 | 0.0 | 2.0 | 0.00 | 0.00 | 0.00 | 71 | 1019.0 |
| 20260503215044 | 54 | 315 | 1.0 | 4.0 | 0.00 | 0.00 | 0.00 | 70 | 1018.8 |
| 20260503214100 | 54 | 0.0 | 1.0 | 0.00 | 0.00 | 0.00 | 70 | 1018.7 | |
| 20260503213036 | 54 | 0.0 | 1.0 | 0.00 | 0.00 | 0.00 | 70 | 1018.6 | |
| 20260503212031 | 55 | 0.0 | 1.0 | 0.00 | 0.00 | 0.00 | 65 | 1018.7 | |
| 20260503211027 | 55 | 0.0 | 0.0 | 0.00 | 0.00 | 0.00 | 64 | 1018.7 | |
| 20260503210023 | 55 | 0.0 | 1.0 | 0.00 | 0.00 | 0.00 | 63 | 1018.7 | |
| 20260503205019 | 56 | 315 | 0.0 | 2.0 | 0.00 | 0.00 | 0.00 | 62 | 1018.6 |
| 20260503204115 | 57 | 315 | 0.0 | 2.0 | 0.00 | 0.00 | 0.00 | 61 | 1018.4 |
| 20260503203110 | 58 | 315 | 1.0 | 2.0 | 0.00 | 0.00 | 0.00 | 60 | 1018.4 |
| 20260503202106 | 58 | 315 | 0.0 | 2.0 | 0.00 | 0.00 | 0.00 | 60 | 1018.4 |
| 20260503201142 | 59 | 0 | 0.0 | 2.0 | 0.00 | 0.00 | 0.00 | 60 | 1018.4 |
| 20260503200058 | 59 | 352 | 1.0 | 3.0 | 0.00 | 0.00 | 0.00 | 60 | 1018.2 |
| 20260503195053 | 59 | 321 | 1.0 | 3.0 | 0.00 | 0.00 | 0.00 | 61 | 1018.2 |
| 20260503194050 | 58 | 315 | 1.0 | 2.0 | 0.00 | 0.00 | 0.00 | 61 | 1018.2 |
| 20260503193045 | 58 | 315 | 0.0 | 2.0 | 0.00 | 0.00 | 0.00 | 61 | 1018.1 |
| 20260503192041 | 59 | 315 | 0.0 | 2.0 | 0.00 | 0.00 | 0.00 | 60 | 1018.1 |
| 20260503191036 | 61 | 330 | 3.0 | 4.0 | 0.00 | 0.00 | 0.00 | 55 | 1017.9 |
| 20260503190032 | 61 | 0 | 2.0 | 3.0 | 0.00 | 0.00 | 0.00 | 55 | 1017.7 |
| 20260503185028 | 61 | 0 | 2.0 | 3.0 | 0.00 | 0.00 | 0.00 | 54 | 1017.9 |
| 20260503184024 | 62 | 0 | 1.0 | 2.0 | 0.00 | 0.00 | 0.00 | 54 | 1017.6 |
| 20260503183040 | 62 | 0.0 | 0.0 | 0.00 | 0.00 | 0.00 | 54 | 1017.5 | |
| 20260503182115 | 63 | 0 | 0.0 | 2.0 | 0.00 | 0.00 | 0.00 | 53 | 1017.4 |
| 20260503181111 | 64 | 0 | 1.0 | 4.0 | 0.00 | 0.00 | 0.00 | 50 | 1017.5 |
| 20260503180107 | 64 | 343 | 3.0 | 6.0 | 0.00 | 0.00 | 0.00 | 50 | 1017.3 |
| 20260503175103 | 65 | 315 | 3.0 | 4.0 | 0.00 | 0.00 | 0.00 | 48 | 1017.2 |
| 20260503174058 | 66 | 338 | 1.0 | 2.0 | 0.00 | 0.00 | 0.00 | 47 | 1017.1 |
| 20260503173054 | 66 | 324 | 2.0 | 6.0 | 0.00 | 0.00 | 0.00 | 46 | 1017.1 |
| 20260503172050 | 67 | 338 | 3.0 | 7.0 | 0.00 | 0.00 | 0.00 | 45 | 1017.0 |
| 20260503171046 | 67 | 327 | 1.0 | 4.0 | 0.00 | 0.00 | 0.00 | 45 | 1017.1 |
| 20260503150110 | 70 | 332 | 7.0 | 12.0 | 0.00 | 0.00 | 0.00 | 41 | 1017.2 |
| 20260503131102 | 73 | 225 | 4.0 | 6.0 | 0.00 | 0.00 | 0.00 | 22 | 1017.0 |
| 20260503110107 | 69 | 278 | 5.0 | 8.0 | 0.00 | 0.00 | 0.00 | 30 | 1018.3 |
| 20260503081054 | 56 | 315 | 3.0 | 4.0 | 0.00 | 0.00 | 0.00 | 51 | 1020.2 |
| 20260503072033 | 52 | 315 | 1.0 | 3.0 | 0.00 | 0.00 | 0.00 | 65 | 1020.8 |
| 20260503071029 | 51 | 315 | 2.0 | 3.0 | 0.00 | 0.00 | 0.00 | 67 | 1020.8 |
| 20260503055056 | 43 | 315 | 1.0 | 2.0 | 0.00 | 0.00 | 0.00 | 82 | 1021.1 |
| 20260503054051 | 41 | 315 | 0.0 | 1.0 | 0.00 | 0.00 | 0.00 | 83 | 1021.0 |
| 20260503053047 | 40 | 315 | 1.0 | 2.0 | 0.00 | 0.00 | 0.00 | 83 | 1021.0 |
| 20260503052123 | 39 | 0.0 | 1.0 | 0.00 | 0.00 | 0.00 | 83 | 1020.9 | |
| 20260503051039 | 39 | 315 | 1.0 | 2.0 | 0.00 | 0.00 | 0.00 | 83 | 1021.0 |
| 20260503050036 | 38 | 0.0 | 0.0 | 0.00 | 0.00 | 0.00 | 83 | 1020.7 | |
| 20260503045030 | 38 | 0.0 | 0.0 | 0.00 | 0.00 | 0.00 | 83 | 1020.8 | |
| 20260503044026 | 38 | 0.0 | 2.0 | 0.00 | 0.00 | 0.00 | 83 | 1020.7 | |
| 20260503043022 | 38 | 302 | 2.0 | 3.0 | 0.00 | 0.00 | 0.00 | 83 | 1020.8 |
| 20260503042017 | 38 | 0.0 | 0.0 | 0.00 | 0.00 | 0.00 | 82 | 1020.7 | |
| 20260503041113 | 38 | 0.0 | 0.0 | 0.00 | 0.00 | 0.00 | 82 | 1020.7 | |
| 20260503040109 | 38 | 0.0 | 0.0 | 0.00 | 0.00 | 0.00 | 82 | 1020.8 | |
| 20260503035105 | 38 | 0.0 | 0.0 | 0.00 | 0.00 | 0.00 | 81 | 1020.6 | |
| 20260503034101 | 38 | 0.0 | 0.0 | 0.00 | 0.00 | 0.00 | 81 | 1020.6 | |
| 20260503033116 | 39 | 0.0 | 0.0 | 0.00 | 0.00 | 0.00 | 81 | 1020.6 | |
| 20260503032052 | 39 | 0.0 | 0.0 | 0.00 | 0.00 | 0.00 | 82 | 1020.7 | |
| 20260503031047 | 39 | 0.0 | 0.0 | 0.00 | 0.00 | 0.00 | 82 | 1020.7 | |
| 20260503030044 | 39 | 0.0 | 0.0 | 0.00 | 0.00 | 0.00 | 81 | 1020.7 | |
| 20260503025039 | 39 | 0.0 | 0.0 | 0.00 | 0.00 | 0.00 | 81 | 1020.9 | |
| 20260503024035 | 39 | 0.0 | 0.0 | 0.00 | 0.00 | 0.00 | 80 | 1020.8 | |
| 20260503023051 | 40 | 0.0 | 1.0 | 0.00 | 0.00 | 0.00 | 81 | 1020.8 | |
| 20260503022048 | 40 | 0.0 | 0.0 | 0.00 | 0.00 | 0.00 | 80 | 1021.0 | |
| 20260503021022 | 40 | 0.0 | 0.0 | 0.00 | 0.00 | 0.00 | 81 | 1020.8 |